Time,TemperatureF,DewpointF,PressureIn,WindDirection,WindDirectionDegrees,WindSpeedMPH,WindSpeedGustMPH,Humidity,HourlyPrecipIn,Conditions,Clouds,dailyrainin,SoftwareType,DateUTC
2014-01-06 00:01:00,43.6,41.4,29.58,SSW,209,5.0,5.0,92,0.05,,,0.00,perl,2014-01-06 05:01:00,
2014-01-06 00:02:00,43.6,41.4,29.58,SW,234,0.0,4.0,92,0.05,,,0.00,perl,2014-01-06 05:02:00,
2014-01-06 00:03:00,43.5,41.3,29.58,West,280,1.0,4.0,92,0.05,,,0.00,perl,2014-01-06 05:03:00,
2014-01-06 00:04:00,43.5,41.3,29.58,SSW,205,7.0,7.0,92,0.05,,,0.00,perl,2014-01-06 05:04:00,
2014-01-06 00:07:00,43.3,41.1,29.58,WSW,237,3.0,3.0,92,0.05,,,0.00,perl,2014-01-06 05:07:00,
2014-01-06 00:11:00,42.9,40.4,29.58,SSE,161,4.0,4.0,91,0.04,,,0.00,perl,2014-01-06 05:11:00,
2014-01-06 00:16:00,42.5,40.0,29.60,SW,225,4.0,4.0,91,0.04,,,0.01,perl,2014-01-06 05:16:00,
2014-01-06 00:21:00,41.9,39.4,29.60,NW,306,0.0,3.0,91,0.09,,,0.02,perl,2014-01-06 05:21:00,
2014-01-06 00:26:00,41.2,38.4,29.60,SW,229,8.0,8.0,90,0.08,,,0.02,perl,2014-01-06 05:26:00,
2014-01-06 00:31:00,40.1,37.4,29.62,SSW,206,4.0,4.0,90,0.05,,,0.02,perl,2014-01-06 05:31:00,
2014-01-06 00:36:00,39.2,36.5,29.62,WSW,237,2.0,3.0,90,0.05,,,0.03,perl,2014-01-06 05:36:00,
2014-01-06 00:41:00,38.3,35.6,29.62,SSE,155,1.0,3.0,90,0.05,,,0.03,perl,2014-01-06 05:41:00,
2014-01-06 00:46:00,37.6,35.2,29.67,SW,227,1.0,3.0,91,0.04,,,0.03,perl,2014-01-06 05:46:00,
2014-01-06 00:51:00,37.1,34.7,29.67,NW,304,1.0,2.0,91,0.00,,,0.03,perl,2014-01-06 05:51:00,
2014-01-06 00:56:00,36.6,34.2,29.67,SW,219,0.0,2.0,91,0.00,,,0.03,perl,2014-01-06 05:56:00,
2014-01-06 01:01:00,36.4,34.2,29.68,WSW,244,2.0,2.0,92,0.00,,,0.04,perl,2014-01-06 06:01:00,
2014-01-06 01:06:00,36.1,34.0,29.68,NE,46,1.0,1.0,92,0.00,,,0.04,perl,2014-01-06 06:06:00,
2014-01-06 01:11:00,35.6,33.5,29.68,WSW,249,5.0,5.0,92,0.00,,,0.04,perl,2014-01-06 06:11:00,
2014-01-06 01:17:00,35.2,33.1,29.70,WSW,242,1.0,3.0,92,0.00,,,0.04,perl,2014-01-06 06:17:00,
2014-01-06 01:22:00,34.8,32.9,29.70,West,278,2.0,2.0,93,0.00,,,0.04,perl,2014-01-06 06:22:00,
2014-01-06 01:27:00,34.2,32.1,29.70,SSW,200,3.0,3.0,92,0.00,,,0.04,perl,2014-01-06 06:27:00,
2014-01-06 01:32:00,33.6,31.7,29.71,SSE,152,0.0,3.0,93,0.00,,,0.04,perl,2014-01-06 06:32:00,
2014-01-06 01:37:00,33.2,31.3,29.71,SSW,199,0.0,2.0,93,0.00,,,0.04,perl,2014-01-06 06:37:00,
2014-01-06 01:42:00,33.0,31.1,29.71,SW,215,5.0,5.0,93,0.00,,,0.04,perl,2014-01-06 06:42:00,
2014-01-06 01:47:00,32.8,31.0,29.73,East,86,0.0,1.0,93,0.00,,,0.04,perl,2014-01-06 06:47:00,
2014-01-06 01:52:00,32.6,30.8,29.73,West,264,1.0,2.0,93,0.00,,,0.04,perl,2014-01-06 06:52:00,
2014-01-06 01:57:00,32.5,30.7,29.73,West,260,3.0,3.0,93,0.00,,,0.04,perl,2014-01-06 06:57:00,
2014-01-06 02:02:00,32.2,30.4,29.76,NNE,22,3.0,3.0,93,0.00,,,0.04,perl,2014-01-06 07:02:00,
2014-01-06 02:07:00,31.9,29.8,29.76,SW,230,0.0,3.0,92,0.00,,,0.04,perl,2014-01-06 07:07:00,
2014-01-06 02:12:00,31.7,29.6,29.76,SSW,196,1.0,2.0,92,0.00,,,0.04,perl,2014-01-06 07:12:00,
2014-01-06 02:17:00,31.5,29.4,29.79,ESE,102,2.0,2.0,92,0.00,,,0.04,perl,2014-01-06 07:17:00,
2014-01-06 02:22:00,31.3,29.2,29.79,West,260,4.0,4.0,92,0.00,,,0.04,perl,2014-01-06 07:22:00,
2014-01-06 02:27:00,31.0,28.6,29.79,WNW,283,2.0,2.0,91,0.00,,,0.04,perl,2014-01-06 07:27:00,
2014-01-06 02:32:00,30.7,28.3,29.80,SSW,205,5.0,5.0,91,0.00,,,0.04,perl,2014-01-06 07:32:00,
2014-01-06 02:37:00,30.5,28.1,29.80,WSW,239,6.0,6.0,91,0.00,,,0.04,perl,2014-01-06 07:37:00,
2014-01-06 02:42:00,30.3,27.9,29.80,WSW,244,0.0,2.0,91,0.00,,,0.04,perl,2014-01-06 07:42:00,
2014-01-06 02:47:00,30.1,27.7,29.82,NE,48,2.0,2.0,91,0.00,,,0.04,perl,2014-01-06 07:47:00,
2014-01-06 02:52:00,29.9,27.5,29.82,SSW,213,0.0,2.0,91,0.00,,,0.04,perl,2014-01-06 07:52:00,
2014-01-06 02:57:00,29.7,27.1,29.82,West,260,2.0,3.0,90,0.00,,,0.04,perl,2014-01-06 07:57:00,
2014-01-06 03:02:00,29.6,27.0,29.84,SW,228,4.0,4.0,90,0.00,,,0.04,perl,2014-01-06 08:02:00,
2014-01-06 03:07:00,29.4,26.8,29.84,SSW,200,4.0,4.0,90,0.00,,,0.04,perl,2014-01-06 08:07:00,
2014-01-06 03:12:00,29.2,26.3,29.84,SSW,197,2.0,3.0,89,0.00,,,0.04,perl,2014-01-06 08:12:00,
2014-01-06 03:17:00,29.1,26.2,29.85,NW,317,3.0,3.0,89,0.00,,,0.04,perl,2014-01-06 08:17:00,
2014-01-06 03:22:00,28.9,26.0,29.85,WSW,242,3.0,3.0,89,0.00,,,0.04,perl,2014-01-06 08:22:00,
2014-01-06 03:27:00,28.8,25.9,29.85,SW,214,0.0,3.0,89,0.00,,,0.04,perl,2014-01-06 08:27:00,
2014-01-06 03:32:00,28.7,25.8,29.86,SW,228,0.0,3.0,89,0.00,,,0.04,perl,2014-01-06 08:32:00,
2014-01-06 03:37:00,28.6,25.7,29.86,NE,55,0.0,2.0,89,0.00,,,0.04,perl,2014-01-06 08:37:00,
2014-01-06 03:42:00,28.5,25.6,29.86,SW,225,4.0,4.0,89,0.00,,,0.04,perl,2014-01-06 08:42:00,
2014-01-06 03:47:00,28.4,25.5,29.87,NE,34,1.0,1.0,89,0.00,,,0.04,perl,2014-01-06 08:47:00,
2014-01-06 03:52:00,28.3,25.2,29.87,SW,223,0.0,2.0,88,0.00,,,0.04,perl,2014-01-06 08:52:00,
2014-01-06 03:57:00,28.2,25.1,29.87,NW,319,1.0,1.0,88,0.00,,,0.04,perl,2014-01-06 08:57:00,
2014-01-06 04:02:00,28.1,25.0,29.89,SW,222,0.0,1.0,88,0.00,,,0.04,perl,2014-01-06 09:02:00,
2014-01-06 04:07:00,28.0,24.6,29.89,NW,305,0.0,1.0,87,0.00,,,0.04,perl,2014-01-06 09:07:00,
2014-01-06 04:12:00,27.9,24.2,29.89,NNW,343,0.0,1.0,86,0.00,,,0.04,perl,2014-01-06 09:12:00,
2014-01-06 04:17:00,27.9,24.2,29.90,SSW,205,0.0,1.0,86,0.00,,,0.04,perl,2014-01-06 09:17:00,
2014-01-06 04:22:00,27.8,24.1,29.90,SSW,205,0.0,0.0,86,0.00,,,0.04,perl,2014-01-06 09:22:00,
2014-01-06 04:27:00,27.8,24.4,29.90,South,188,0.0,0.0,87,0.00,,,0.04,perl,2014-01-06 09:27:00,
2014-01-06 04:32:00,27.8,24.4,29.90,SW,232,1.0,1.0,87,0.00,,,0.04,perl,2014-01-06 09:32:00,
2014-01-06 04:37:00,27.6,24.2,29.90,South,191,0.0,1.0,87,0.00,,,0.04,perl,2014-01-06 09:37:00,
2014-01-06 04:42:00,27.3,23.9,29.90,WSW,254,7.0,7.0,87,0.00,,,0.04,perl,2014-01-06 09:42:00,
2014-01-06 04:47:00,26.7,23.0,29.92,NNE,17,0.0,2.0,86,0.00,,,0.04,perl,2014-01-06 09:47:00,
2014-01-06 04:52:00,26.3,22.6,29.92,WNW,297,1.0,2.0,86,0.00,,,0.04,perl,2014-01-06 09:52:00,
2014-01-06 04:57:00,25.9,22.0,29.92,SSW,195,3.0,3.0,85,0.00,,,0.04,perl,2014-01-06 09:57:00,
2014-01-06 05:02:00,25.3,21.4,29.93,SSE,167,1.0,1.0,85,0.00,,,0.04,perl,2014-01-06 10:02:00,
2014-01-06 05:07:00,24.8,20.9,29.93,ESE,110,2.0,2.0,85,0.00,,,0.04,perl,2014-01-06 10:07:00,
2014-01-06 05:12:00,24.6,20.7,29.93,SW,223,0.0,2.0,85,0.00,,,0.04,perl,2014-01-06 10:12:00,
2014-01-06 05:17:00,24.4,20.5,29.94,North,10,1.0,1.0,85,0.00,,,0.04,perl,2014-01-06 10:17:00,
2014-01-06 05:22:00,24.2,20.3,29.94,ESE,117,0.0,1.0,85,0.00,,,0.04,perl,2014-01-06 10:22:00,
2014-01-06 05:27:00,24.1,20.2,29.94,SW,227,1.0,1.0,85,0.00,,,0.04,perl,2014-01-06 10:27:00,
2014-01-06 05:32:00,23.9,20.0,29.96,NNE,19,0.0,1.0,85,0.00,,,0.04,perl,2014-01-06 10:32:00,
2014-01-06 05:37:00,23.5,19.4,29.96,SW,219,7.0,7.0,84,0.00,,,0.04,perl,2014-01-06 10:37:00,
2014-01-06 05:42:00,23.2,19.3,29.96,WSW,249,3.0,3.0,85,0.00,,,0.04,perl,2014-01-06 10:42:00,
2014-01-06 05:47:00,22.9,18.8,29.97,ENE,63,1.0,2.0,84,0.00,,,0.04,perl,2014-01-06 10:47:00,
2014-01-06 05:52:00,22.7,18.6,29.97,SSW,202,1.0,2.0,84,0.00,,,0.04,perl,2014-01-06 10:52:00,
2014-01-06 05:57:00,22.5,18.4,29.97,SW,227,0.0,1.0,84,0.00,,,0.04,perl,2014-01-06 10:57:00,
2014-01-06 06:02:00,22.5,18.6,29.97,SW,229,3.0,3.0,85,0.00,,,0.04,perl,2014-01-06 11:02:00,
2014-01-06 06:08:00,22.4,18.5,29.97,SW,218,1.0,0.0,85,0.00,,,0.04,perl,2014-01-06 11:08:00,
2014-01-06 06:13:00,22.2,18.1,29.97,WSW,246,0.0,1.0,84,0.00,,,0.04,perl,2014-01-06 11:13:00,
2014-01-06 06:18:00,21.8,17.7,29.98,SW,229,1.0,2.0,84,0.00,,,0.04,perl,2014-01-06 11:18:00,
2014-01-06 06:23:00,21.5,17.1,29.98,East,92,0.0,2.0,83,0.00,,,0.04,perl,2014-01-06 11:23:00,
2014-01-06 06:28:00,21.2,16.6,29.98,SW,233,2.0,2.0,82,0.00,,,0.04,perl,2014-01-06 11:28:00,
2014-01-06 06:33:00,20.9,16.3,30.00,SW,219,0.0,2.0,82,0.00,,,0.04,perl,2014-01-06 11:33:00,
2014-01-06 06:38:00,20.8,16.2,30.00,West,280,2.0,2.0,82,0.00,,,0.04,perl,2014-01-06 11:38:00,
2014-01-06 06:43:00,20.8,16.4,30.00,WSW,258,1.0,1.0,83,0.00,,,0.04,perl,2014-01-06 11:43:00,
2014-01-06 06:48:00,20.8,16.4,30.00,SW,236,1.0,1.0,83,0.00,,,0.04,perl,2014-01-06 11:48:00,
2014-01-06 06:53:00,20.8,16.4,30.00,WSW,246,2.0,2.0,83,0.00,,,0.04,perl,2014-01-06 11:53:00,
2014-01-06 06:58:00,20.7,16.6,30.00,SW,232,2.0,2.0,84,0.00,,,0.04,perl,2014-01-06 11:58:00,
2014-01-06 07:03:00,20.5,16.1,30.01,SW,227,4.0,4.0,83,0.00,,,0.04,perl,2014-01-06 12:03:00,
2014-01-06 07:08:00,20.3,15.9,30.01,SW,236,0.0,2.0,83,0.00,,,0.04,perl,2014-01-06 12:08:00,
2014-01-06 07:13:00,20.1,15.7,30.01,SW,236,0.0,1.0,83,0.00,,,0.04,perl,2014-01-06 12:13:00,
2014-01-06 07:18:00,19.9,15.3,30.02,WSW,244,4.0,0.0,82,0.00,,,0.04,perl,2014-01-06 12:18:00,
2014-01-06 07:23:00,19.7,14.8,30.02,WSW,247,3.0,3.0,81,0.00,,,0.04,perl,2014-01-06 12:23:00,
2014-01-06 07:28:00,19.3,14.4,30.02,West,281,0.0,1.0,81,0.00,,,0.04,perl,2014-01-06 12:28:00,
2014-01-06 07:33:00,19.1,14.5,30.03,SW,234,1.0,1.0,82,0.00,,,0.04,perl,2014-01-06 12:33:00,
2014-01-06 07:38:00,18.8,14.2,30.03,West,277,0.0,1.0,82,0.00,,,0.04,perl,2014-01-06 12:38:00,
2014-01-06 07:44:00,18.4,14.1,30.05,WSW,248,7.0,7.0,83,0.00,,,0.04,perl,2014-01-06 12:44:00,
2014-01-06 07:49:00,18.0,13.7,30.05,West,262,0.0,1.0,83,0.00,,,0.04,perl,2014-01-06 12:49:00,
2014-01-06 07:55:00,17.7,13.4,30.05,ENE,71,1.0,1.0,83,0.00,,,0.04,perl,2014-01-06 12:55:00,
2014-01-06 08:00:00,17.3,12.7,30.06,WNW,286,0.0,1.0,82,0.00,,,0.04,perl,2014-01-06 13:00:00,
2014-01-06 08:05:00,17.2,12.9,30.06,West,281,0.0,1.0,83,0.00,,,0.04,perl,2014-01-06 13:05:00,
2014-01-06 08:10:00,16.8,11.7,30.06,WSW,252,3.0,3.0,80,0.00,,,0.04,perl,2014-01-06 13:10:00,
2014-01-06 08:15:00,16.7,11.6,30.07,NNW,333,0.0,2.0,80,0.00,,,0.04,perl,2014-01-06 13:15:00,
2014-01-06 08:20:00,16.8,12.0,30.07,WSW,240,3.0,3.0,81,0.00,,,0.04,perl,2014-01-06 13:20:00,
2014-01-06 08:25:00,16.8,11.7,30.07,SW,235,1.0,0.0,80,0.00,,,0.04,perl,2014-01-06 13:25:00,
2014-01-06 08:30:00,16.8,11.4,30.08,SW,236,3.0,3.0,79,0.00,,,0.04,perl,2014-01-06 13:30:00,
2014-01-06 08:35:00,16.7,11.3,30.08,NNW,336,0.0,1.0,79,0.00,,,0.04,perl,2014-01-06 13:35:00,
2014-01-06 08:40:00,16.7,11.3,30.08,WNW,290,0.0,0.0,79,0.00,,,0.04,perl,2014-01-06 13:40:00,
2014-01-06 08:45:00,16.7,11.3,30.08,WSW,242,6.0,0.0,79,0.00,,,0.04,perl,2014-01-06 13:45:00,
2014-01-06 08:50:00,16.7,11.3,30.08,West,271,0.0,1.0,79,0.00,,,0.04,perl,2014-01-06 13:50:00,
2014-01-06 08:55:00,16.7,11.3,30.08,WSW,241,0.0,1.0,79,0.00,,,0.04,perl,2014-01-06 13:55:00,
2014-01-06 09:00:00,16.6,11.2,30.08,WSW,252,2.0,2.0,79,0.00,,,0.04,perl,2014-01-06 14:00:00,
2014-01-06 09:05:00,16.6,11.2,30.08,NNW,348,0.0,1.0,79,0.00,,,0.04,perl,2014-01-06 14:05:00,
2014-01-06 09:08:00,16.6,11.5,30.08,North,355,0.0,1.0,80,0.00,,,0.04,perl,2014-01-06 14:08:00,
2014-01-06 09:13:00,16.7,11.9,30.08,NW,320,0.0,0.0,81,0.00,,,0.04,perl,2014-01-06 14:13:00,
2014-01-06 09:19:00,16.4,11.6,30.10,WSW,241,0.0,1.0,81,0.00,,,0.04,perl,2014-01-06 14:19:00,
2014-01-06 09:24:00,16.3,11.8,30.10,WSW,242,1.0,1.0,82,0.00,,,0.04,perl,2014-01-06 14:24:00,
2014-01-06 09:29:00,16.1,11.6,30.10,NW,319,0.0,0.0,82,0.00,,,0.04,perl,2014-01-06 14:29:00,
2014-01-06 09:34:00,15.7,10.6,30.10,North,10,3.0,3.0,80,0.00,,,0.04,perl,2014-01-06 14:34:00,
2014-01-06 09:39:00,15.4,10.1,30.10,SSE,162,0.0,2.0,79,0.00,,,0.04,perl,2014-01-06 14:39:00,
2014-01-06 09:44:00,15.3,10.0,30.11,NNE,23,0.0,1.0,79,0.00,,,0.04,perl,2014-01-06 14:44:00,
2014-01-06 09:49:00,15.3,10.2,30.11,NNE,26,2.0,2.0,80,0.00,,,0.04,perl,2014-01-06 14:49:00,
2014-01-06 09:54:00,15.0,9.9,30.11,WSW,240,0.0,1.0,80,0.00,,,0.04,perl,2014-01-06 14:54:00,
2014-01-06 09:59:00,14.9,10.1,30.13,NE,42,2.0,0.0,81,0.00,,,0.04,perl,2014-01-06 14:59:00,
2014-01-06 10:04:00,14.7,9.4,30.13,NNE,17,0.0,1.0,79,0.00,,,0.04,perl,2014-01-06 15:04:00,
2014-01-06 10:09:00,14.3,8.4,30.13,WSW,248,0.0,1.0,77,0.00,,,0.04,perl,2014-01-06 15:09:00,
2014-01-06 10:14:00,14.1,8.2,30.13,WNW,299,0.0,1.0,77,0.00,,,0.04,perl,2014-01-06 15:14:00,
2014-01-06 10:19:00,14.0,8.1,30.13,South,185,1.0,1.0,77,0.00,,,0.04,perl,2014-01-06 15:19:00,
2014-01-06 10:24:00,13.9,7.5,30.13,WSW,240,0.0,2.0,75,0.00,,,0.04,perl,2014-01-06 15:24:00,
2014-01-06 10:29:00,13.9,7.5,30.13,NW,304,0.0,1.0,75,0.00,,,0.04,perl,2014-01-06 15:29:00,
2014-01-06 10:34:00,13.9,7.8,30.13,WNW,285,0.0,1.0,76,0.00,,,0.04,perl,2014-01-06 15:34:00,
2014-01-06 10:39:00,13.8,7.4,30.13,West,275,0.0,1.0,75,0.00,,,0.04,perl,2014-01-06 15:39:00,
2014-01-06 10:44:00,13.7,7.8,30.14,South,187,3.0,3.0,77,0.00,,,0.04,perl,2014-01-06 15:44:00,
2014-01-06 10:49:00,13.6,8.3,30.14,SSW,196,4.0,4.0,79,0.00,,,0.04,perl,2014-01-06 15:49:00,
2014-01-06 10:54:00,13.6,8.6,30.14,NW,321,1.0,1.0,80,0.00,,,0.04,perl,2014-01-06 15:54:00,
2014-01-06 10:59:00,13.4,8.4,30.15,NW,314,0.0,1.0,80,0.00,,,0.04,perl,2014-01-06 15:59:00,
2014-01-06 11:04:00,13.0,8.0,30.15,SW,225,0.0,1.0,80,0.00,,,0.04,perl,2014-01-06 16:04:00,
2014-01-06 11:09:00,13.0,7.7,30.15,West,281,0.0,1.0,79,0.00,,,0.04,perl,2014-01-06 16:09:00,
2014-01-06 11:14:00,12.8,7.2,30.15,West,265,0.0,1.0,78,0.00,,,0.04,perl,2014-01-06 16:14:00,
2014-01-06 11:19:00,13.1,7.5,30.15,South,184,0.0,1.0,78,0.00,,,0.04,perl,2014-01-06 16:19:00,
2014-01-06 11:24:00,13.5,7.6,30.15,SE,137,0.0,1.0,77,0.00,,,0.04,perl,2014-01-06 16:24:00,
2014-01-06 11:29:00,13.4,6.1,30.15,WSW,254,0.0,1.0,72,0.00,,,0.04,perl,2014-01-06 16:29:00,
2014-01-06 11:34:00,13.1,6.1,30.15,North,355,2.0,2.0,73,0.00,,,0.04,perl,2014-01-06 16:34:00,
2014-01-06 11:39:00,12.7,6.3,30.15,SSW,210,4.0,4.0,75,0.00,,,0.04,perl,2014-01-06 16:39:00,
2014-01-06 11:44:00,12.3,5.6,30.15,NNE,25,0.0,3.0,74,0.00,,,0.04,perl,2014-01-06 16:44:00,
2014-01-06 11:49:00,12.3,5.3,30.15,NE,47,2.0,2.0,73,0.00,,,0.04,perl,2014-01-06 16:49:00,
2014-01-06 11:54:00,11.8,3.3,30.15,WSW,250,6.0,6.0,68,0.00,,,0.04,perl,2014-01-06 16:54:00,
2014-01-06 11:59:00,11.2,2.4,30.15,North,355,2.0,3.0,67,0.00,,,0.04,perl,2014-01-06 16:59:00,
2014-01-06 12:04:00,11.4,3.6,30.15,NW,318,5.0,5.0,70,0.00,,,0.04,perl,2014-01-06 17:04:00,
2014-01-06 12:09:00,11.6,3.4,30.15,SSW,198,0.0,2.0,69,0.00,,,0.04,perl,2014-01-06 17:09:00,
2014-01-06 12:14:00,12.1,3.6,30.15,SSE,156,5.0,5.0,68,0.00,,,0.04,perl,2014-01-06 17:14:00,
2014-01-06 12:19:00,12.5,4.0,30.15,NE,53,0.0,2.0,68,0.00,,,0.04,perl,2014-01-06 17:19:00,
2014-01-06 12:24:00,12.7,4.5,30.15,SW,219,0.0,2.0,69,0.00,,,0.04,perl,2014-01-06 17:24:00,
2014-01-06 12:29:00,13.2,5.0,30.15,East,92,4.0,4.0,69,0.00,,,0.04,perl,2014-01-06 17:29:00,
2014-01-06 12:34:00,12.8,3.3,30.15,North,360,0.0,2.0,65,0.00,,,0.04,perl,2014-01-06 17:34:00,
2014-01-06 12:39:00,12.7,3.2,30.15,West,265,8.0,8.0,65,0.00,,,0.04,perl,2014-01-06 17:39:00,
2014-01-06 12:44:00,12.4,3.2,30.15,SW,235,0.0,1.0,66,0.00,,,0.04,perl,2014-01-06 17:44:00,
2014-01-06 12:49:00,12.6,3.4,30.15,WNW,299,1.0,1.0,66,0.00,,,0.04,perl,2014-01-06 17:49:00,
2014-01-06 12:54:00,12.3,2.5,30.15,NE,36,5.0,5.0,64,0.00,,,0.04,perl,2014-01-06 17:54:00,
2014-01-06 12:59:00,11.4,1.6,30.16,North,5,1.0,1.0,64,0.00,,,0.04,perl,2014-01-06 17:59:00,
2014-01-06 13:04:00,11.2,2.1,30.16,North,360,5.0,5.0,66,0.00,,,0.04,perl,2014-01-06 18:04:00,
2014-01-06 13:10:00,11.0,1.2,30.16,West,265,0.0,1.0,64,0.00,,,0.04,perl,2014-01-06 18:10:00,
2014-01-06 13:15:00,11.4,3.6,30.16,SSW,204,1.0,1.0,70,0.00,,,0.04,perl,2014-01-06 18:15:00,
2014-01-06 13:20:00,12.0,3.5,30.16,SW,217,0.0,1.0,68,0.00,,,0.04,perl,2014-01-06 18:20:00,
2014-01-06 13:25:00,11.0,1.2,30.16,ESE,119,1.0,2.0,64,0.00,,,0.04,perl,2014-01-06 18:25:00,
2014-01-06 13:30:00,10.5,1.8,30.17,SW,234,0.0,3.0,67,0.00,,,0.04,perl,2014-01-06 18:30:00,
2014-01-06 13:35:00,10.5,2.7,30.17,SSE,164,0.0,2.0,70,0.00,,,0.04,perl,2014-01-06 18:35:00,
2014-01-06 13:40:00,10.5,2.7,30.17,SW,230,0.0,2.0,70,0.00,,,0.04,perl,2014-01-06 18:40:00,
2014-01-06 13:45:00,10.4,2.3,30.17,SW,229,4.0,4.0,69,0.00,,,0.04,perl,2014-01-06 18:45:00,
2014-01-06 13:50:00,9.5,1.4,30.17,NW,309,0.0,3.0,69,0.00,,,0.04,perl,2014-01-06 18:50:00,
2014-01-06 13:55:00,9.2,1.7,30.17,SE,142,0.0,3.0,71,0.00,,,0.04,perl,2014-01-06 18:55:00,
2014-01-06 14:00:00,9.5,2.0,30.18,SW,223,0.0,2.0,71,0.00,,,0.04,perl,2014-01-06 19:00:00,
2014-01-06 14:06:00,9.9,0.2,30.18,SW,229,0.0,2.0,64,0.00,,,0.04,perl,2014-01-06 19:06:00,
2014-01-06 14:11:00,10.4,0.7,30.18,WSW,253,11.0,11.0,64,0.00,,,0.04,perl,2014-01-06 19:11:00,
2014-01-06 14:16:00,10.4,0.3,30.20,SSW,194,3.0,3.0,63,0.00,,,0.04,perl,2014-01-06 19:16:00,
2014-01-06 14:21:00,10.8,1.4,30.20,SW,222,1.0,3.0,65,0.00,,,0.04,perl,2014-01-06 19:21:00,
2014-01-06 14:26:00,10.9,-0.2,30.20,WNW,284,5.0,5.0,60,0.00,,,0.04,perl,2014-01-06 19:26:00,
2014-01-06 14:31:00,10.3,-0.5,30.20,NE,55,1.0,4.0,61,0.00,,,0.04,perl,2014-01-06 19:31:00,
2014-01-06 14:36:00,9.9,-0.8,30.20,WSW,248,1.0,3.0,61,0.00,,,0.04,perl,2014-01-06 19:36:00,
2014-01-06 14:41:00,9.9,-0.8,30.20,SSW,195,0.0,3.0,61,0.00,,,0.04,perl,2014-01-06 19:41:00,
2014-01-06 14:46:00,10.0,-0.7,30.21,WSW,258,2.0,2.0,61,0.00,,,0.04,perl,2014-01-06 19:46:00,
2014-01-06 14:51:00,10.1,-0.3,30.21,SSW,207,0.0,1.0,62,0.00,,,0.04,perl,2014-01-06 19:51:00,
2014-01-06 14:56:00,9.5,-1.2,30.21,WSW,248,0.0,2.0,61,0.00,,,0.04,perl,2014-01-06 19:56:00,
2014-01-06 15:01:00,9.9,-0.1,30.22,North,360,1.0,1.0,63,0.00,,,0.04,perl,2014-01-06 20:01:00,
2014-01-06 15:07:00,9.9,0.2,30.22,NE,35,6.0,6.0,64,0.00,,,0.04,perl,2014-01-06 20:07:00,
2014-01-06 15:12:00,9.2,0.2,30.22,SW,215,0.0,2.0,66,0.00,,,0.04,perl,2014-01-06 20:12:00,
2014-01-06 15:17:00,8.8,0.8,30.23,SSW,213,3.0,3.0,69,0.00,,,0.04,perl,2014-01-06 20:17:00,
2014-01-06 15:22:00,8.4,2.1,30.23,WSW,247,1.0,1.0,75,0.00,,,0.04,perl,2014-01-06 20:22:00,
2014-01-06 15:27:00,8.3,2.9,30.23,SW,217,5.0,5.0,78,0.00,,,0.04,perl,2014-01-06 20:27:00,
2014-01-06 15:32:00,8.1,2.1,30.24,SW,233,4.0,4.0,76,0.00,,,0.04,perl,2014-01-06 20:32:00,
2014-01-06 15:37:00,7.9,1.6,30.24,WSW,246,3.0,3.0,75,0.00,,,0.04,perl,2014-01-06 20:37:00,
2014-01-06 15:42:00,7.5,0.7,30.24,SSW,211,0.0,1.0,73,0.00,,,0.04,perl,2014-01-06 20:42:00,
2014-01-06 15:47:00,7.5,0.1,30.25,SSW,192,1.0,1.0,71,0.00,,,0.04,perl,2014-01-06 20:47:00,
2014-01-06 15:52:00,7.6,-0.7,30.25,WSW,244,12.0,12.0,68,0.00,,,0.04,perl,2014-01-06 20:52:00,
2014-01-06 15:57:00,7.3,-1.6,30.25,WSW,258,0.0,2.0,66,0.00,,,0.04,perl,2014-01-06 20:57:00,
2014-01-06 16:02:00,7.0,-1.9,30.26,WSW,241,0.0,3.0,66,0.00,,,0.04,perl,2014-01-06 21:02:00,
2014-01-06 16:07:00,6.7,-1.3,30.26,NW,311,0.0,1.0,69,0.00,,,0.04,perl,2014-01-06 21:07:00,
2014-01-06 16:12:00,6.7,-0.1,30.26,SE,144,0.0,0.0,73,0.00,,,0.04,perl,2014-01-06 21:12:00,
2014-01-06 16:17:00,6.7,0.2,30.27,West,263,0.0,0.0,74,0.00,,,0.04,perl,2014-01-06 21:17:00,
2014-01-06 16:22:00,6.3,-0.8,30.27,North,360,2.0,2.0,72,0.00,,,0.04,perl,2014-01-06 21:22:00,
2014-01-06 16:27:00,6.2,-0.6,30.27,WSW,253,3.0,3.0,73,0.00,,,0.04,perl,2014-01-06 21:27:00,
2014-01-06 16:32:00,6.2,-0.9,30.27,WSW,248,0.0,1.0,72,0.00,,,0.04,perl,2014-01-06 21:32:00,
2014-01-06 16:37:00,6.2,-2.1,30.27,West,268,2.0,2.0,68,0.00,,,0.04,perl,2014-01-06 21:37:00,
2014-01-06 16:42:00,6.0,-1.9,30.27,SSW,210,0.0,1.0,69,0.00,,,0.04,perl,2014-01-06 21:42:00,
2014-01-06 16:47:00,5.9,-2.0,30.28,WSW,240,0.0,1.0,69,0.00,,,0.04,perl,2014-01-06 21:47:00,
2014-01-06 16:52:00,5.8,-1.8,30.28,NNW,329,4.0,4.0,70,0.00,,,0.04,perl,2014-01-06 21:52:00,
2014-01-06 16:57:00,5.7,-2.5,30.28,SW,215,3.0,3.0,68,0.00,,,0.04,perl,2014-01-06 21:57:00,
2014-01-06 17:02:00,5.6,-2.3,30.28,SSW,209,0.0,2.0,69,0.00,,,0.04,perl,2014-01-06 22:02:00,
2014-01-06 17:07:00,5.5,-3.0,30.28,West,281,0.0,1.0,67,0.00,,,0.04,perl,2014-01-06 22:07:00,
2014-01-06 17:12:00,5.5,-2.4,30.28,SE,136,2.0,2.0,69,0.00,,,0.04,perl,2014-01-06 22:12:00,
2014-01-06 17:17:00,5.4,-3.4,30.29,NNW,343,1.0,2.0,66,0.00,,,0.04,perl,2014-01-06 22:17:00,
2014-01-06 17:22:00,5.2,-4.0,30.29,WSW,242,0.0,2.0,65,0.00,,,0.04,perl,2014-01-06 22:22:00,
2014-01-06 17:27:00,5.0,-1.4,30.29,North,355,0.0,1.0,74,0.00,,,0.04,perl,2014-01-06 22:27:00,
2014-01-06 17:33:00,4.7,-3.5,30.30,WSW,248,0.0,1.0,68,0.00,,,0.04,perl,2014-01-06 22:33:00,
2014-01-06 17:38:00,4.6,-3.3,30.30,WSW,240,0.0,1.0,69,0.00,,,0.04,perl,2014-01-06 22:38:00,
2014-01-06 17:43:00,4.6,-3.0,30.30,SW,214,0.0,0.0,70,0.00,,,0.04,perl,2014-01-06 22:43:00,
2014-01-06 17:49:00,4.6,-3.6,30.30,SW,216,0.0,0.0,68,0.00,,,0.04,perl,2014-01-06 22:49:00,
2014-01-06 17:54:00,4.6,-3.6,30.30,SW,222,2.0,0.0,68,0.00,,,0.04,perl,2014-01-06 22:54:00,
2014-01-06 17:59:00,4.4,-4.1,30.31,SW,228,0.0,1.0,67,0.00,,,0.04,perl,2014-01-06 22:59:00,
2014-01-06 18:04:00,4.2,-4.0,30.31,NE,37,0.0,1.0,68,0.00,,,0.04,perl,2014-01-06 23:04:00,
2014-01-06 18:09:00,4.1,-3.8,30.31,WSW,244,0.0,2.0,69,0.00,,,0.04,perl,2014-01-06 23:09:00,
2014-01-06 18:14:00,4.0,-3.9,30.32,NW,319,2.0,2.0,69,0.00,,,0.04,perl,2014-01-06 23:14:00,
2014-01-06 18:19:00,3.9,-3.4,30.32,WSW,249,0.0,1.0,71,0.00,,,0.04,perl,2014-01-06 23:19:00,
2014-01-06 18:24:00,3.8,-3.2,30.32,NNE,28,0.0,0.0,72,0.00,,,0.04,perl,2014-01-06 23:24:00,
2014-01-06 18:29:00,3.8,-3.2,30.32,NW,321,0.0,0.0,72,0.00,,,0.04,perl,2014-01-06 23:29:00,
2014-01-06 18:34:00,3.8,-2.9,30.33,SSW,203,0.0,0.0,73,0.00,,,0.04,perl,2014-01-06 23:34:00,
2014-01-06 18:39:00,3.6,-2.8,30.33,WSW,237,0.0,1.0,74,0.00,,,0.04,perl,2014-01-06 23:39:00,
2014-01-06 18:44:00,3.5,-2.3,30.33,North,355,0.0,1.0,76,0.00,,,0.04,perl,2014-01-06 23:44:00,
2014-01-06 18:49:00,3.5,-2.1,30.34,WSW,244,0.0,0.0,77,0.00,,,0.04,perl,2014-01-06 23:49:00,
2014-01-06 18:54:00,3.3,-2.0,30.34,North,360,2.0,2.0,78,0.00,,,0.04,perl,2014-01-06 23:54:00,
2014-01-06 18:59:00,3.2,-2.4,30.34,West,259,0.0,1.0,77,0.00,,,0.04,perl,2014-01-06 23:59:00,
2014-01-06 19:04:00,3.2,-2.1,30.34,ESE,115,1.0,1.0,78,0.00,,,0.04,perl,2014-01-07 00:04:00,
2014-01-06 19:09:00,3.2,-2.1,30.34,SW,228,3.0,3.0,78,0.00,,,0.04,perl,2014-01-07 00:09:00,
2014-01-06 19:14:00,3.1,-2.7,30.34,WSW,238,0.0,1.0,76,0.00,,,0.04,perl,2014-01-07 00:14:00,
2014-01-06 19:19:00,3.0,-2.6,30.35,South,170,2.0,2.0,77,0.00,,,0.04,perl,2014-01-07 00:19:00,
2014-01-06 19:24:00,2.9,-2.1,30.35,ENE,61,0.0,1.0,79,0.00,,,0.04,perl,2014-01-07 00:24:00,
2014-01-06 19:29:00,2.9,-2.1,30.36,NE,34,0.0,1.0,79,0.00,,,0.04,perl,2014-01-07 00:29:00,
2014-01-06 19:34:00,3.0,-2.3,30.36,WSW,246,0.0,1.0,78,0.00,,,0.04,perl,2014-01-07 00:34:00,
2014-01-06 19:39:00,3.1,-2.2,30.36,SW,222,3.0,3.0,78,0.00,,,0.04,perl,2014-01-07 00:39:00,
2014-01-06 19:44:00,3.1,-3.3,30.36,SSE,165,0.0,2.0,74,0.00,,,0.04,perl,2014-01-07 00:44:00,
2014-01-06 19:49:00,3.1,-3.8,30.37,WSW,252,0.0,1.0,72,0.00,,,0.04,perl,2014-01-07 00:49:00,
2014-01-06 19:54:00,3.1,-4.1,30.37,SSW,207,0.0,0.0,71,0.00,,,0.04,perl,2014-01-07 00:54:00,
2014-01-06 19:59:00,3.0,-4.8,30.37,WSW,243,2.0,0.0,69,0.00,,,0.04,perl,2014-01-07 00:59:00,
2014-01-06 20:04:00,2.8,-4.7,30.38,SW,223,0.0,1.0,70,0.00,,,0.04,perl,2014-01-07 01:04:00,
2014-01-06 20:09:00,2.8,-4.4,30.38,SW,218,0.0,1.0,71,0.00,,,0.04,perl,2014-01-07 01:09:00,
2014-01-06 20:14:00,2.8,-4.4,30.38,SW,217,2.0,2.0,71,0.00,,,0.04,perl,2014-01-07 01:14:00,
2014-01-06 20:19:00,2.8,-4.4,30.38,WSW,248,0.0,1.0,71,0.00,,,0.04,perl,2014-01-07 01:19:00,
2014-01-06 20:24:00,2.7,-4.5,30.38,East,79,0.0,0.0,71,0.00,,,0.04,perl,2014-01-07 01:24:00,
2014-01-06 20:29:00,2.6,-4.6,30.38,NNE,28,1.0,1.0,71,0.00,,,0.04,perl,2014-01-07 01:29:00,
2014-01-06 20:34:00,2.6,-4.6,30.39,NNW,332,2.0,2.0,71,0.00,,,0.04,perl,2014-01-07 01:34:00,
2014-01-06 20:39:00,2.6,-4.6,30.39,WSW,238,3.0,3.0,71,0.00,,,0.04,perl,2014-01-07 01:39:00,
2014-01-06 20:44:00,2.5,-4.7,30.39,WSW,238,0.0,1.0,71,0.00,,,0.04,perl,2014-01-07 01:44:00,
2014-01-06 20:49:00,2.5,-5.0,30.39,West,276,0.0,1.0,70,0.00,,,0.04,perl,2014-01-07 01:49:00,
2014-01-06 20:54:00,2.5,-4.7,30.39,WNW,284,0.0,1.0,71,0.00,,,0.04,perl,2014-01-07 01:54:00,
2014-01-06 20:59:00,2.5,-4.7,30.39,West,277,0.0,0.0,71,0.00,,,0.04,perl,2014-01-07 01:59:00,
2014-01-06 21:04:00,2.5,-4.7,30.40,West,259,0.0,0.0,71,0.00,,,0.04,perl,2014-01-07 02:04:00,
2014-01-06 21:09:00,2.4,-4.8,30.40,SSW,207,0.0,0.0,71,0.00,,,0.04,perl,2014-01-07 02:09:00,
2014-01-06 21:14:00,2.4,-4.8,30.40,NW,323,1.0,0.0,71,0.00,,,0.04,perl,2014-01-07 02:14:00,
2014-01-06 21:19:00,2.2,-5.0,30.40,SW,233,5.0,0.0,71,0.00,,,0.04,perl,2014-01-07 02:19:00,
2014-01-06 21:24:00,2.1,-5.4,30.40,ESE,111,2.0,2.0,70,0.00,,,0.04,perl,2014-01-07 02:24:00,
2014-01-06 21:29:00,2.0,-5.5,30.40,West,259,0.0,1.0,70,0.00,,,0.04,perl,2014-01-07 02:29:00,
2014-01-06 21:34:00,2.0,-5.5,30.40,WSW,238,0.0,1.0,70,0.00,,,0.04,perl,2014-01-07 02:34:00,
2014-01-06 21:39:00,2.0,-5.5,30.40,SW,234,0.0,0.0,70,0.00,,,0.04,perl,2014-01-07 02:39:00,
2014-01-06 21:44:00,2.0,-5.5,30.40,WSW,238,2.0,2.0,70,0.00,,,0.04,perl,2014-01-07 02:44:00,
2014-01-06 21:49:00,2.0,-5.5,30.41,WSW,242,0.0,1.0,70,0.00,,,0.04,perl,2014-01-07 02:49:00,
2014-01-06 21:54:00,1.9,-5.9,30.41,WSW,254,0.0,1.0,69,0.00,,,0.04,perl,2014-01-07 02:54:00,
2014-01-06 21:59:00,1.9,-5.9,30.41,SW,222,0.0,1.0,69,0.00,,,0.04,perl,2014-01-07 02:59:00,
2014-01-06 22:04:00,1.8,-6.0,30.41,SW,225,0.0,0.0,69,0.00,,,0.04,perl,2014-01-07 03:04:00,
2014-01-06 22:09:00,1.8,-6.3,30.41,SW,229,0.0,0.0,68,0.00,,,0.04,perl,2014-01-07 03:09:00,
2014-01-06 22:14:00,1.7,-6.1,30.41,WSW,258,0.0,0.0,69,0.00,,,0.04,perl,2014-01-07 03:14:00,
2014-01-06 22:19:00,1.7,-6.1,30.41,West,268,0.0,1.0,69,0.00,,,0.04,perl,2014-01-07 03:19:00,
2014-01-06 22:24:00,1.7,-6.1,30.41,WSW,245,0.0,1.0,69,0.00,,,0.04,perl,2014-01-07 03:24:00,
2014-01-06 22:29:00,1.5,-6.0,30.41,SW,225,3.0,3.0,70,0.00,,,0.04,perl,2014-01-07 03:29:00,
2014-01-06 22:34:00,1.5,-6.0,30.42,West,275,1.0,2.0,70,0.00,,,0.04,perl,2014-01-07 03:34:00,
2014-01-06 22:39:00,1.5,-6.3,30.42,SW,218,0.0,2.0,69,0.00,,,0.04,perl,2014-01-07 03:39:00,
2014-01-06 22:44:00,1.5,-6.3,30.42,SW,230,0.0,1.0,69,0.00,,,0.04,perl,2014-01-07 03:44:00,
2014-01-06 22:49:00,1.4,-6.7,30.42,WSW,256,2.0,2.0,68,0.00,,,0.04,perl,2014-01-07 03:49:00,
2014-01-06 22:54:00,1.3,-7.1,30.42,SW,214,2.0,2.0,67,0.00,,,0.04,perl,2014-01-07 03:54:00,
2014-01-06 22:59:00,1.1,-6.9,30.42,SW,229,0.0,1.0,68,0.00,,,0.04,perl,2014-01-07 03:59:00,
2014-01-06 23:04:00,1.1,-6.6,30.43,SW,217,0.0,1.0,69,0.00,,,0.04,perl,2014-01-07 04:04:00,
2014-01-06 23:09:00,1.0,-7.0,30.43,WSW,244,0.0,0.0,68,0.00,,,0.04,perl,2014-01-07 04:09:00,
2014-01-06 23:14:00,0.8,-7.5,30.43,NNW,340,7.0,0.0,67,0.00,,,0.04,perl,2014-01-07 04:14:00,
2014-01-06 23:19:00,0.8,-7.2,30.44,WSW,240,0.0,0.0,68,0.00,,,0.04,perl,2014-01-07 04:19:00,
2014-01-06 23:24:00,0.5,-8.1,30.44,WSW,244,0.0,0.0,66,0.00,,,0.04,perl,2014-01-07 04:24:00,
2014-01-06 23:29:00,0.3,-8.3,30.44,SW,219,0.0,1.0,66,0.00,,,0.04,perl,2014-01-07 04:29:00,
2014-01-06 23:34:00,0.2,-8.4,30.44,ESE,123,0.0,0.0,66,0.00,,,0.04,perl,2014-01-07 04:34:00,
2014-01-06 23:39:00,0.1,-8.2,30.44,SW,214,0.0,0.0,67,0.00,,,0.04,perl,2014-01-07 04:39:00,
2014-01-06 23:44:00,0.0,0.0,30.44,North,0,0.0,0.0,0,0.00,,,0.00,perl,2014-01-07 04:44:00,
2014-01-06 23:49:00,999.9,99.9,30.44,North,10,0.0,1.0,67,0.00,,,0.04,perl,2014-01-07 04:49:00,
2014-01-06 23:54:00,999.9,99.9,30.44,SW,230,0.0,0.0,67,0.00,,,0.04,perl,2014-01-07 04:54:00,
2014-01-06 23:59:00,999.9,99.9,30.44,WSW,246,0.0,0.0,68,0.00,,,0.04,perl,2014-01-07 04:59:00,